| time (UTC) | temp F | wind direction | speed knots | gust knots | rain 1hr in | rain 24hr in | rain mn in | humidity % | barometer mb |
| 20260505023929 | 61 | 263 | 2.6 | 5.2 | 0.00 | 0.13 | 0.11 | 71 | 1023.9 |
| 20260505023411 | 61 | 263 | 2.6 | 5.2 | 0.00 | 0.13 | 0.11 | 71 | 1023.9 |
| 20260505022910 | 61 | 263 | 1.7 | 5.2 | 0.00 | 0.13 | 0.11 | 71 | 1023.9 |
| 20260505022416 | 61 | 263 | 0.9 | 5.2 | 0.00 | 0.13 | 0.11 | 71 | 1023.8 |
| 20260505021920 | 61 | 263 | 1.7 | 5.2 | 0.00 | 0.13 | 0.11 | 69 | 1023.8 |
| 20260505021415 | 61 | 263 | 1.7 | 5.2 | 0.00 | 0.13 | 0.11 | 69 | 1023.8 |
| 20260505020904 | 61 | 263 | 1.7 | 5.2 | 0.00 | 0.13 | 0.11 | 68 | 1023.8 |
| 20260505015738 | 61 | 263 | 2.6 | 5.2 | 0.00 | 0.14 | 0.11 | 69 | 1023.9 |
| 20260505015242 | 61 | 263 | 1.7 | 5.2 | 0.00 | 0.14 | 0.11 | 69 | 1023.9 |
| 20260505014736 | 61 | 263 | 0.9 | 4.3 | 0.00 | 0.14 | 0.11 | 70 | 1023.9 |
| 20260505013616 | 60 | 263 | 0.9 | 2.6 | 0.00 | 0.14 | 0.11 | 72 | 1023.9 |
| 20260505013104 | 60 | 263 | 0.9 | 3.5 | 0.00 | 0.14 | 0.11 | 73 | 1023.9 |
| 20260505012559 | 60 | 263 | 0.9 | 3.5 | 0.00 | 0.14 | 0.11 | 74 | 1023.8 |
| 20260505012043 | 60 | 263 | 0.9 | 3.5 | 0.00 | 0.14 | 0.11 | 75 | 1023.8 |
| 20260505011527 | 60 | 263 | 0.9 | 2.6 | 0.00 | 0.14 | 0.11 | 76 | 1023.8 |
| 20260505011012 | 60 | 263 | 0.0 | 1.7 | 0.00 | 0.14 | 0.11 | 77 | 1023.7 |
| 20260505010516 | 60 | 263 | 0.0 | 1.7 | 0.00 | 0.14 | 0.11 | 78 | 1023.7 |
| 20260505010026 | 60 | 263 | 0.0 | 3.5 | 0.00 | 0.14 | 0.11 | 78 | 1023.7 |
| 20260505005534 | 59 | 263 | 0.0 | 2.6 | 0.00 | 0.14 | 0.11 | 80 | 1023.5 |
| 20260505005044 | 59 | 263 | 0.0 | 2.6 | 0.00 | 0.14 | 0.11 | 81 | 1023.5 |
| 20260505004542 | 59 | 263 | 0.0 | 1.7 | 0.00 | 0.14 | 0.11 | 82 | 1023.5 |
| 20260505004038 | 59 | 263 | 0.0 | 1.7 | 0.00 | 0.14 | 0.11 | 83 | 1023.3 |
| 20260505003533 | 59 | 263 | 0.0 | 1.7 | 0.00 | 0.14 | 0.11 | 84 | 1023.3 |
| 20260505003023 | 59 | 263 | 0.0 | 0.9 | 0.00 | 0.14 | 0.11 | 86 | 1023.3 |
| 20260505002503 | 59 | 263 | 0.0 | 3.5 | 0.00 | 0.14 | 0.11 | 88 | 1023.3 |
| 20260505002012 | 59 | 263 | 0.0 | 3.5 | 0.00 | 0.14 | 0.11 | 88 | 1023.3 |
| 20260505001458 | 58 | 263 | 0.0 | 1.7 | 0.00 | 0.14 | 0.11 | 89 | 1023.3 |
| 20260505000947 | 58 | 263 | 0.0 | 0.0 | 0.00 | 0.14 | 0.11 | 90 | 1023.2 |
| 20260505000445 | 57 | 263 | 0.9 | 2.6 | 0.00 | 0.14 | 0.11 | 90 | 1023.2 |
| 20260504235926 | 57 | 263 | 0.0 | 2.6 | 0.00 | 0.14 | 0.11 | 90 | 1023.2 |
| 20260504235425 | 58 | 263 | 0.0 | 2.6 | 0.00 | 0.14 | 0.11 | 91 | 1023.2 |
| 20260504234918 | 57 | 263 | 0.0 | 0.0 | 0.00 | 0.14 | 0.11 | 92 | 1023.2 |
| 20260504234359 | 57 | 263 | 0.0 | 0.0 | 0.00 | 0.14 | 0.11 | 92 | 1023.1 |
| 20260504233249 | 57 | 263 | 0.0 | 1.7 | 0.00 | 0.14 | 0.11 | 92 | 1023.1 |
| 20260504231440 | 57 | 263 | 0.0 | 0.0 | 0.00 | 0.14 | 0.11 | 93 | 1022.9 |
| 20260504230946 | 56 | 263 | 0.0 | 0.0 | 0.00 | 0.14 | 0.11 | 93 | 1022.9 |
| 20260504230453 | 56 | 263 | 0.0 | 1.7 | 0.00 | 0.14 | 0.11 | 92 | 1022.9 |
| 20260504225958 | 56 | 263 | 0.0 | 0.0 | 0.00 | 0.14 | 0.11 | 93 | 1022.9 |
| 20260504225506 | 56 | 263 | 0.0 | 0.9 | 0.00 | 0.14 | 0.11 | 93 | 1022.8 |
| 20260504224955 | 56 | 263 | 0.0 | 0.9 | 0.00 | 0.14 | 0.11 | 92 | 1022.8 |
| 20260504223813 | 55 | 263 | 0.0 | 3.5 | 0.00 | 0.14 | 0.11 | 92 | 1022.7 |
| 20260504223255 | 55 | 263 | 0.0 | 3.5 | 0.00 | 0.14 | 0.11 | 92 | 1022.7 |
| 20260504222736 | 55 | 263 | 0.0 | 0.9 | 0.00 | 0.14 | 0.11 | 93 | 1022.5 |
| 20260504222219 | 55 | 263 | 0.0 | 0.9 | 0.00 | 0.14 | 0.11 | 93 | 1022.5 |
| 20260504221659 | 55 | 263 | 0.0 | 0.9 | 0.00 | 0.14 | 0.11 | 93 | 1022.5 |
| 20260504221155 | 55 | 263 | 0.0 | 0.0 | 0.00 | 0.14 | 0.11 | 92 | 1022.3 |
| 20260504220701 | 55 | 263 | 0.0 | 1.7 | 0.00 | 0.14 | 0.11 | 92 | 1022.3 |
| 20260504220157 | 55 | 263 | 0.0 | 0.9 | 0.00 | 0.14 | 0.11 | 92 | 1022.3 |
| 20260504215658 | 55 | 263 | 0.0 | 0.0 | 0.00 | 0.14 | 0.11 | 92 | 1022.2 |
| 20260504215207 | 55 | 263 | 0.0 | 1.7 | 0.00 | 0.14 | 0.11 | 92 | 1022.2 |
| 20260504214647 | 55 | 263 | 0.0 | 0.0 | 0.00 | 0.14 | 0.11 | 92 | 1022.2 |
| 20260504213531 | 55 | 263 | 0.0 | 0.0 | 0.00 | 0.14 | 0.11 | 92 | 1022.2 |
| 20260504213023 | 55 | 263 | 0.0 | 0.0 | 0.00 | 0.14 | 0.11 | 92 | 1022.2 |
| 20260504212525 | 55 | 263 | 0.0 | 0.0 | 0.00 | 0.14 | 0.11 | 92 | 1021.9 |
| 20260504211350 | 55 | 263 | 0.0 | 0.0 | 0.00 | 0.14 | 0.11 | 92 | 1021.7 |
| 20260504210845 | 55 | 263 | 0.0 | 0.9 | 0.00 | 0.14 | 0.11 | 92 | 1021.7 |
| 20260504210353 | 55 | 263 | 0.9 | 1.7 | 0.00 | 0.14 | 0.11 | 92 | 1021.7 |
| 20260504205841 | 55 | 263 | 0.9 | 3.5 | 0.00 | 0.14 | 0.11 | 92 | 1021.7 |
| 20260504204714 | 55 | 263 | 0.0 | 1.7 | 0.00 | 0.14 | 0.10 | 92 | 1021.7 |
| 20260504204202 | 55 | 263 | 0.0 | 0.0 | 0.00 | 0.14 | 0.10 | 92 | 1021.6 |
| 20260504203645 | 55 | 263 | 0.0 | 0.0 | 0.00 | 0.14 | 0.10 | 92 | 1021.6 |
| 20260504203125 | 55 | 263 | 0.0 | 0.0 | 0.00 | 0.14 | 0.10 | 92 | 1021.6 |
| 20260504202622 | 55 | 263 | 0.0 | 0.0 | 0.00 | 0.14 | 0.10 | 92 | 1021.3 |
| 20260504200240 | 55 | 263 | 0.0 | 0.0 | 0.00 | 0.14 | 0.10 | 92 | 1021.2 |
| 20260504195732 | 55 | 263 | 0.0 | 0.0 | 0.00 | 0.14 | 0.10 | 92 | 1021.1 |
| 20260504194556 | 55 | 263 | 0.0 | 0.0 | 0.00 | 0.13 | 0.09 | 92 | 1021.1 |
| 20260504193424 | 55 | 263 | 0.0 | 0.0 | 0.00 | 0.13 | 0.09 | 92 | 1021.0 |
| 20260504192400 | 55 | 263 | 0.0 | 0.0 | 0.00 | 0.13 | 0.09 | 92 | 1020.9 |
| 20260504191859 | 55 | 263 | 0.0 | 0.0 | 0.00 | 0.13 | 0.09 | 92 | 1020.9 |
| 20260504190715 | 55 | 263 | 0.0 | 0.0 | 0.00 | 0.13 | 0.09 | 92 | 1020.7 |
| 20260504190210 | 55 | 263 | 0.0 | 0.0 | 0.00 | 0.13 | 0.09 | 92 | 1020.7 |
| 20260504185650 | 55 | 263 | 0.0 | 0.0 | 0.00 | 0.13 | 0.09 | 92 | 1020.6 |
| 20260504185144 | 55 | 263 | 0.0 | 0.0 | 0.00 | 0.13 | 0.09 | 92 | 1020.6 |
| 20260504184640 | 55 | 263 | 0.0 | 0.0 | 0.00 | 0.13 | 0.09 | 92 | 1020.6 |
| 20260504184149 | 55 | 263 | 0.0 | 0.0 | 0.00 | 0.13 | 0.09 | 92 | 1020.6 |
| 20260504183650 | 55 | 263 | 0.0 | 0.0 | 0.00 | 0.13 | 0.09 | 91 | 1020.6 |
| 20260504183134 | 55 | 263 | 0.0 | 0.0 | 0.00 | 0.13 | 0.09 | 91 | 1020.6 |
| 20260504182616 | 55 | 263 | 0.0 | 0.0 | 0.00 | 0.13 | 0.09 | 91 | 1020.6 |
| 20260504182102 | 55 | 263 | 0.0 | 0.0 | 0.00 | 0.13 | 0.09 | 91 | 1020.6 |
| 20260504181541 | 55 | 263 | 0.0 | 2.6 | 0.00 | 0.13 | 0.09 | 91 | 1020.6 |
| 20260504181043 | 55 | 263 | 0.9 | 2.6 | 0.00 | 0.13 | 0.09 | 91 | 1020.5 |
| 20260504180526 | 55 | 263 | 0.9 | 2.6 | 0.03 | 0.13 | 0.09 | 92 | 1020.5 |
| 20260504180026 | 55 | 263 | 0.0 | 2.6 | 0.04 | 0.13 | 0.09 | 92 | 1020.5 |
| 20260504175508 | 55 | 263 | 0.0 | 0.9 | 0.09 | 0.13 | 0.09 | 92 | 1020.6 |
| 20260504175004 | 55 | 263 | 0.0 | 1.7 | 0.11 | 0.12 | 0.08 | 92 | 1020.6 |
| 20260504173816 | 55 | 263 | 0.0 | 0.0 | 0.00 | 0.09 | 0.05 | 91 | 1020.6 |
| 20260504173303 | 55 | 263 | 0.0 | 0.0 | 0.00 | 0.09 | 0.05 | 91 | 1020.6 |
| 20260504172755 | 55 | 263 | 0.0 | 0.0 | 0.00 | 0.09 | 0.05 | 91 | 1020.6 |
| 20260504172259 | 55 | 263 | 0.0 | 1.7 | 0.00 | 0.09 | 0.05 | 91 | 1020.6 |
| 20260504171807 | 55 | 263 | 0.0 | 1.7 | 0.00 | 0.09 | 0.05 | 91 | 1020.6 |
| 20260504170639 | 55 | 263 | 0.0 | 0.0 | 0.00 | 0.09 | 0.05 | 91 | 1020.6 |
| 20260504170125 | 55 | 263 | 0.0 | 0.0 | 0.00 | 0.09 | 0.05 | 91 | 1020.6 |
| 20260504150650 | 55 | 263 | 0.0 | 0.9 | 0.00 | 0.06 | 0.00 | 90 | 1020.5 |
| 20260504150145 | 55 | 263 | 0.0 | 0.9 | 0.00 | 0.06 | 0.00 | 90 | 1020.5 |
| 20260504141006 | 55 | 263 | 0.0 | 1.7 | 0.00 | 0.15 | 0.15 | 89 | 1020.2 |
| 20260504130402 | 56 | 263 | 0.0 | 0.0 | 0.00 | 0.18 | 0.15 | 88 | 1020.1 |
| 20260504110304 | 58 | 263 | 0.0 | 0.0 | 0.00 | 0.18 | 0.14 | 84 | 1019.0 |
| 20260504100517 | 60 | 263 | 0.0 | 0.9 | 0.00 | 0.18 | 0.13 | 79 | 1018.3 |
| 20260504082002 | 62 | 263 | 5.2 | 12.2 | 0.00 | 0.22 | 0.13 | 70 | 1016.9 |
| 20260504080842 | 62 | 263 | 4.3 | 12.2 | 0.00 | 0.25 | 0.13 | 69 | 1016.6 |
| 20260504080332 | 62 | 263 | 4.3 | 12.2 | 0.00 | 0.25 | 0.13 | 69 | 1016.6 |
| 20260504050721 | 66 | 263 | 6.1 | 12.2 | 0.00 | 0.31 | 0.13 | 63 | 1014.8 |
| 20260504050222 | 66 | 263 | 6.1 | 15.6 | 0.00 | 0.31 | 0.13 | 62 | 1014.8 |
| 20260504045709 | 66 | 263 | 5.2 | 15.6 | 0.00 | 0.31 | 0.13 | 62 | 1014.8 |
| 20260504045215 | 65 | 263 | 7.0 | 15.6 | 0.00 | 0.31 | 0.13 | 64 | 1014.8 |
| 20260504044723 | 65 | 263 | 7.0 | 15.6 | 0.00 | 0.31 | 0.13 | 63 | 1014.8 |
| 20260504044219 | 66 | 263 | 6.1 | 13.0 | 0.00 | 0.31 | 0.13 | 64 | 1014.7 |
| 20260504043724 | 66 | 263 | 7.0 | 14.8 | 0.00 | 0.31 | 0.13 | 67 | 1014.7 |
| 20260504043226 | 65 | 263 | 7.0 | 14.8 | 0.00 | 0.31 | 0.13 | 66 | 1014.7 |
| 20260504042722 | 65 | 263 | 7.0 | 14.8 | 0.00 | 0.31 | 0.13 | 65 | 1014.6 |
| 20260504042213 | 65 | 263 | 7.0 | 14.8 | 0.00 | 0.31 | 0.13 | 64 | 1014.6 |
| 20260504041703 | 65 | 263 | 6.1 | 13.9 | 0.00 | 0.31 | 0.13 | 66 | 1014.6 |
| 20260504041200 | 65 | 263 | 7.0 | 13.9 | 0.00 | 0.31 | 0.13 | 66 | 1014.6 |
| 20260504040646 | 65 | 263 | 7.0 | 13.9 | 0.00 | 0.31 | 0.13 | 66 | 1014.6 |
| 20260504040141 | 65 | 263 | 7.0 | 13.9 | 0.00 | 0.31 | 0.13 | 65 | 1014.6 |
| 20260504035633 | 65 | 263 | 6.1 | 13.9 | 0.00 | 0.31 | 0.13 | 66 | 1014.7 |
| 20260504035124 | 65 | 263 | 6.1 | 13.9 | 0.00 | 0.31 | 0.13 | 66 | 1014.7 |
| 20260504034629 | 65 | 263 | 5.2 | 14.8 | 0.00 | 0.31 | 0.13 | 66 | 1014.7 |
| 20260504034138 | 65 | 263 | 5.2 | 14.8 | 0.00 | 0.31 | 0.13 | 65 | 1014.7 |
| 20260504033638 | 65 | 263 | 6.1 | 14.8 | 0.00 | 0.31 | 0.13 | 66 | 1014.7 |
| 20260504033131 | 65 | 263 | 6.1 | 14.8 | 0.00 | 0.31 | 0.13 | 67 | 1014.7 |
| 20260504032626 | 65 | 263 | 5.2 | 13.9 | 0.00 | 0.31 | 0.13 | 69 | 1014.8 |
| 20260504032133 | 64 | 263 | 6.1 | 13.9 | 0.00 | 0.31 | 0.13 | 69 | 1014.8 |
| 20260504031633 | 64 | 263 | 6.1 | 11.3 | 0.00 | 0.31 | 0.13 | 68 | 1014.8 |
| 20260504031124 | 64 | 263 | 5.2 | 13.0 | 0.00 | 0.31 | 0.13 | 67 | 1014.8 |
| 20260504030616 | 64 | 263 | 5.2 | 13.0 | 0.00 | 0.31 | 0.13 | 69 | 1014.8 |
| 20260504030124 | 64 | 263 | 7.0 | 15.6 | 0.00 | 0.31 | 0.13 | 69 | 1014.8 |
| 20260504025609 | 64 | 263 | 7.8 | 15.6 | 0.00 | 0.31 | 0.13 | 68 | 1014.8 |